• In Russia
  • List of Countries
  • For 7 days
  • Water Temperature
  • Satellite Maps
  • Weather Map
  • Weather Widgets
  • user-avatar
    Login

    Hourly Weather Kitzbuhel

    Today, 21 June, Thursday

    Time Temperature Precipitation Wind Pressure Humidity
    00:00 +15°C° 0 mm 1 mps 680 mmHg 93%
    01:00 +15°C° 0 mm 1 mps 680 mmHg 93%
    02:00 +15°C° 0 mm 1 mps 680 mmHg 93%
    03:00 +15°C° 0 mm 1 mps 679 mmHg 92%
    04:00 +14°C° 0 mm 1 mps 679 mmHg 92%
    05:00 +16°C° 0 mm 1 mps 679 mmHg 87%
    06:00 +19°C° 0 mm 1 mps 679 mmHg 82%
    07:00 +21°C° 0 mm 1 mps 680 mmHg 77%
    08:00 +23°C° 0 mm 1 mps 680 mmHg 69%
    09:00 +25°C° 0 mm 1 mps 680 mmHg 60%
    10:00 +27°C° 0 mm 1 mps 680 mmHg 52%
    11:00 +26°C° 0.5 mm 2 mps 679 mmHg 54%
    12:00 +26°C° 0.5 mm 2 mps 679 mmHg 56%
    13:00 +26°C° 0.5 mm 2 mps 678 mmHg 59%
    14:00 +25°C° 1.6 mm 2 mps 678 mmHg 67%
    15:00 +24°C° 1.6 mm 2 mps 678 mmHg 75%
    16:00 +21°C° 1.6 mm 2 mps 677 mmHg 84%
    17:00 +20°C° 1.3 mm 2 mps 677 mmHg 87%
    18:00 +19°C° 1.3 mm 2 mps 678 mmHg 91%
    19:00 +17°C° 1.3 mm 2 mps 678 mmHg 94%
    20:00 +17°C° 0.6 mm 2 mps 678 mmHg 95%
    21:00 +16°C° 0.6 mm 2 mps 678 mmHg 96%
    22:00 +15°C° 0.6 mm 2 mps 679 mmHg 97%
    23:00 +14°C° 0.4 mm 2 mps 679 mmHg 97%

    Tomorrow, 22 June, Friday

    Time Temperature Precipitation Wind Pressure Humidity
    00:00 +13°C° 0.4 mm 2 mps 679 mmHg 97%
    01:00 +12°C° 0.4 mm 2 mps 679 mmHg 97%
    02:00 +10°C° 0.4 mm 2 mps 679 mmHg 97%
    03:00 +9°C° 0.4 mm 2 mps 679 mmHg 97%
    04:00 +9°C° 0.4 mm 2 mps 678 mmHg 96%
    05:00 +9°C° 0.1 mm 2 mps 679 mmHg 95%
    06:00 +9°C° 0.1 mm 2 mps 679 mmHg 94%
    07:00 +9°C° 0.1 mm 2 mps 679 mmHg 92%
    08:00 +10°C° 0 mm 2 mps 679 mmHg 87%
    09:00 +12°C° 0 mm 2 mps 680 mmHg 81%
    10:00 +11°C° 0 mm 3 mps 680 mmHg 75%
    11:00 +13°C° 0 mm 3 mps 680 mmHg 65%
    12:00 +14°C° 0 mm 3 mps 680 mmHg 55%
    13:00 +17°C° 0 mm 4 mps 681 mmHg 44%
    14:00 +16°C° 0 mm 3 mps 680 mmHg 49%
    15:00 +16°C° 0 mm 3 mps 680 mmHg 53%
    16:00 +14°C° 0 mm 3 mps 680 mmHg 58%
    17:00 +13°C° 0.2 mm 3 mps 680 mmHg 65%
    18:00 +12°C° 0.2 mm 3 mps 680 mmHg 73%
    19:00 +12°C° 0.2 mm 2 mps 680 mmHg 81%
    20:00 +10°C° 0.2 mm 2 mps 680 mmHg 85%
    21:00 +9°C° 0.2 mm 2 mps 681 mmHg 89%
    22:00 +9°C° 0.2 mm 1 mps 681 mmHg 93%
    23:00 +9°C° 0.1 mm 1 mps 681 mmHg 94%

    Day after tomorrow, 23 June, Saturday

    Time Temperature Precipitation Wind Pressure Humidity
    00:00 +9°C° 0.1 mm 1 mps 681 mmHg 94%
    01:00 +8°C° 0.1 mm 1 mps 681 mmHg 94%
    02:00 +8°C° 0 mm 1 mps 681 mmHg 94%
    03:00 +8°C° 0 mm 1 mps 681 mmHg 94%
    04:00 +7°C° 0 mm 1 mps 681 mmHg 94%
    05:00 +8°C° 0 mm 1 mps 681 mmHg 90%
    06:00 +9°C° 0 mm 1 mps 681 mmHg 86%
    07:00 +10°C° 0 mm 1 mps 681 mmHg 82%
    08:00 +12°C° 0 mm 1 mps 681 mmHg 72%
    09:00 +14°C° 0 mm 2 mps 682 mmHg 62%
    10:00 +16°C° 0 mm 2 mps 682 mmHg 52%
    11:00 +17°C° 0 mm 2 mps 682 mmHg 49%
    12:00 +18°C° 0 mm 2 mps 682 mmHg 46%
    13:00 +19°C° 0 mm 2 mps 681 mmHg 42%
    14:00 +18°C° 0 mm 3 mps 681 mmHg 45%
    15:00 +18°C° 0 mm 3 mps 681 mmHg 47%
    16:00 +18°C° 0 mm 3 mps 681 mmHg 49%
    17:00 +17°C° 0 mm 2 mps 680 mmHg 57%
    18:00 +15°C° 0 mm 2 mps 680 mmHg 66%
    19:00 +14°C° 0 mm 2 mps 680 mmHg 74%
    20:00 +13°C° 0 mm 1 mps 680 mmHg 81%
    21:00 +11°C° 0 mm 1 mps 680 mmHg 87%
    22:00 +9°C° 0 mm 1 mps 680 mmHg 94%
    23:00 +9°C° 0 mm 1 mps 680 mmHg 94%

    24 June, Sunday

    Time Temperature Precipitation Wind Pressure Humidity
    00:00 +9°C° 0 mm 1 mps 680 mmHg 94%
    01:00 +9°C° 0 mm 1 mps 680 mmHg 94%
    02:00 +9°C° 0 mm 1 mps 680 mmHg 94%
    03:00 +8°C° 0 mm 1 mps 680 mmHg 94%
    04:00 +8°C° 0 mm 1 mps 679 mmHg 95%
    05:00 +9°C° 0 mm 1 mps 680 mmHg 90%
    06:00 +11°C° 0 mm 1 mps 680 mmHg 85%
    07:00 +12°C° 0 mm 1 mps 680 mmHg 80%
    08:00 +13°C° 0 mm 1 mps 680 mmHg 74%
    09:00 +14°C° 0 mm 1 mps 681 mmHg 67%
    10:00 +15°C° 0 mm 2 mps 681 mmHg 60%
    11:00 +16°C° 0.1 mm 2 mps 681 mmHg 59%
    12:00 +16°C° 0.1 mm 2 mps 681 mmHg 57%
    13:00 +17°C° 0.1 mm 2 mps 681 mmHg 55%
    14:00 +17°C° 0.1 mm 2 mps 681 mmHg 56%
    15:00 +17°C° 0.1 mm 2 mps 681 mmHg 57%
    16:00 +17°C° 0.1 mm 2 mps 680 mmHg 58%
    17:00 +16°C° 0.2 mm 2 mps 680 mmHg 66%
    18:00 +15°C° 0.2 mm 2 mps 680 mmHg 74%
    19:00 +14°C° 0.2 mm 1 mps 680 mmHg 82%
    20:00 +12°C° 0.1 mm 1 mps 680 mmHg 86%
    21:00 +11°C° 0.1 mm 1 mps 680 mmHg 91%
    22:00 +10°C° 0.1 mm 1 mps 680 mmHg 95%
    23:00 +9°C° 0 mm 1 mps 680 mmHg 95%

    25 June, Monday

    Time Temperature Precipitation Wind Pressure Humidity
    00:00 +9°C° 0 mm 1 mps 680 mmHg 96%
    01:00 +8°C° 0 mm 1 mps 680 mmHg 96%
    02:00 +8°C° 0 mm 1 mps 680 mmHg 96%
    03:00 +8°C° 0 mm 1 mps 680 mmHg 96%
    04:00 +8°C° 0 mm 1 mps 680 mmHg 96%
    05:00 +9°C° 0 mm 1 mps 680 mmHg 91%
    06:00 +10°C° 0 mm 1 mps 681 mmHg 86%
    07:00 +12°C° 0 mm 1 mps 681 mmHg 81%
    08:00 +13°C° 0.1 mm 1 mps 681 mmHg 74%
    09:00 +15°C° 0.1 mm 1 mps 681 mmHg 66%
    10:00 +16°C° 0.1 mm 2 mps 682 mmHg 58%
    11:00 +17°C° 0.1 mm 2 mps 682 mmHg 55%
    12:00 +18°C° 0.1 mm 2 mps 681 mmHg 52%
    13:00 +19°C° 0.1 mm 2 mps 681 mmHg 50%
    14:00 +19°C° 0.1 mm 2 mps 681 mmHg 52%
    15:00 +19°C° 0.1 mm 2 mps 681 mmHg 55%
    16:00 +18°C° 0.1 mm 2 mps 681 mmHg 57%
    17:00 +17°C° 0.1 mm 2 mps 681 mmHg 65%
    18:00 +16°C° 0.1 mm 2 mps 681 mmHg 74%
    19:00 +15°C° 0.1 mm 2 mps 681 mmHg 82%
    20:00 +14°C° 0 mm 1 mps 681 mmHg 86%
    21:00 +12°C° 0 mm 1 mps 681 mmHg 91%
    22:00 +10°C° 0 mm 1 mps 681 mmHg 95%
    23:00 +10°C° 0 mm 1 mps 681 mmHg 96%

    26 June, Tuesday

    Time Temperature Precipitation Wind Pressure Humidity
    00:00 +10°C° 0 mm 1 mps 681 mmHg 96%
    01:00 +9°C° 0 mm 1 mps 681 mmHg 96%
    02:00 +9°C° 0 mm 1 mps 681 mmHg 96%
    03:00 +9°C° 0 mm 1 mps 681 mmHg 95%
    04:00 +8°C° 0 mm 1 mps 681 mmHg 95%
    05:00 +10°C° 0 mm 1 mps 681 mmHg 90%
    06:00 +12°C° 0 mm 1 mps 681 mmHg 84%
    07:00 +14°C° 0 mm 1 mps 682 mmHg 79%
    08:00 +16°C° 0 mm 1 mps 682 mmHg 70%
    09:00 +17°C° 0 mm 2 mps 682 mmHg 61%
    10:00 +19°C° 0 mm 2 mps 682 mmHg 52%
    11:00 +20°C° 0 mm 2 mps 682 mmHg 51%
    12:00 +21°C° 0 mm 3 mps 682 mmHg 49%
    13:00 +22°C° 0 mm 3 mps 682 mmHg 47%
    14:00 +22°C° 0 mm 3 mps 682 mmHg 49%
    15:00 +21°C° 0 mm 3 mps 682 mmHg 51%
    16:00 +21°C° 0 mm 3 mps 682 mmHg 52%
    17:00 +20°C° 0 mm 3 mps 682 mmHg 60%
    18:00 +19°C° 0 mm 2 mps 682 mmHg 67%
    19:00 +18°C° 0 mm 2 mps 682 mmHg 75%
    20:00 +16°C° 0 mm 2 mps 682 mmHg 82%
    21:00 +14°C° 0 mm 2 mps 682 mmHg 88%
    22:00 +12°C° 0 mm 1 mps 682 mmHg 95%
    23:00 +12°C° 0 mm 1 mps 682 mmHg 95%
    Show more